period_start,C,m1,H,J0,J1,J2,J3,J4,J5,JA,JB,JC,JD,JJ,JK,JN,#
2016-12-21 00:00:32,0.10,11.20,0.00,19.84,24.50,28.32,14.98,54.43,1030.27,2034.99,1191.76,1368.85,1516.69,599.98,610.54,55.32,0000 0000 0000 0000 000000
2016-12-21 00:05:33,0.14,11.22,0.00,19.84,24.50,28.34,15.04,54.53,1030.27,2034.98,1191.02,1368.07,1516.02,600.09,610.62,55.37,0000 0000 0000 0000 000000
2016-12-21 00:10:34,0.15,11.22,0.00,19.83,24.50,28.35,15.11,54.59,1030.06,2034.99,1190.27,1367.85,1515.38,600.25,610.64,55.42,0000 0000 0000 0000 000000
2016-12-21 00:15:35,0.10,11.23,0.00,19.85,24.50,28.31,14.98,54.58,1030.17,2034.99,1189.84,1367.08,1514.97,599.75,610.17,55.47,0000 0000 0000 0000 000000
2016-12-21 00:20:36,0.15,11.23,0.00,19.82,24.50,28.26,14.97,54.53,1030.22,2034.99,1189.05,1366.75,1514.17,599.74,610.33,55.52,0000 0000 0000 0000 000000
2016-12-21 00:25:38,0.15,11.24,0.00,19.83,24.51,28.33,14.99,54.65,1030.26,2034.98,1188.40,1366.05,1513.82,599.54,610.18,55.57,0000 0000 0000 0000 000000
2016-12-21 00:30:39,0.11,11.25,0.00,19.84,24.51,28.22,15.05,54.77,1030.21,2034.98,1187.84,1365.67,1513.05,600.31,610.78,55.62,0000 0000 0000 0000 000000
2016-12-21 00:35:41,0.15,11.26,0.00,19.81,24.51,28.30,15.01,54.64,1030.29,2034.98,1187.05,1365.02,1512.43,599.85,610.63,55.67,0000 0000 0000 0000 000000
2016-12-21 00:40:42,0.15,11.26,0.00,19.78,24.52,28.34,15.08,54.48,1030.30,2034.98,1186.36,1364.57,1511.99,600.23,610.89,55.72,0000 0000 0000 0000 000000
2016-12-21 00:45:43,0.08,11.27,0.00,19.84,24.51,28.29,15.07,54.65,1030.40,2034.98,1185.92,1364.01,1511.27,600.03,610.63,55.77,0000 0000 0000 0000 000000
2016-12-21 00:50:44,0.16,11.28,0.00,19.82,24.51,28.29,15.08,54.48,1030.36,2034.97,1185.08,1363.53,1510.85,600.00,610.73,55.82,0000 0000 0000 0000 000000
2016-12-21 00:55:46,0.12,11.28,0.00,19.84,24.52,28.31,15.08,54.37,1030.61,2034.97,1184.62,1363.01,1510.07,600.03,610.88,55.87,0000 0000 0000 0000 000000
2016-12-21 01:00:47,0.13,11.29,0.00,19.84,24.52,28.36,15.06,54.41,1030.68,2034.98,1184.01,1362.54,1509.67,599.95,610.82,55.92,0000 0000 0000 0000 000000
2016-12-21 01:05:48,0.12,11.30,0.00,19.84,24.52,28.35,15.09,54.37,1030.65,2034.99,1183.37,1362.01,1509.02,600.24,611.02,55.97,0000 0000 0000 0000 000000
2016-12-21 01:10:49,0.14,11.30,0.00,19.85,24.52,28.42,15.10,54.39,1030.72,2034.99,1182.83,1361.58,1508.53,600.17,611.01,56.03,0000 0000 0000 0000 000000
2016-12-21 01:15:50,0.09,11.31,0.00,19.89,24.52,28.32,15.01,54.32,1030.70,2034.98,1182.05,1361.02,1508.00,599.96,610.72,56.08,0000 0000 0000 0000 000000
2016-12-21 01:20:51,0.16,11.31,0.00,19.90,24.52,28.24,15.04,54.67,1030.49,2034.98,1181.49,1360.68,1507.35,600.12,610.54,56.13,0000 0000 0000 0000 000000
2016-12-21 01:25:53,0.08,11.32,0.00,19.90,24.52,28.31,15.07,54.46,1030.61,2034.98,1180.94,1360.02,1506.94,600.14,610.81,56.18,0000 0000 0000 0000 000000
2016-12-21 01:30:54,0.19,11.33,0.00,19.88,24.52,28.36,15.02,54.45,1030.60,2034.98,1180.10,1359.57,1506.14,599.64,610.27,56.23,0000 0000 0000 0000 000000
2016-12-21 01:35:55,0.11,11.34,0.00,19.88,24.52,28.37,15.04,54.43,1030.70,2034.98,1179.58,1359.01,1505.82,599.91,610.69,56.28,0000 0000 0000 0000 000000
2016-12-21 01:40:56,0.12,11.34,0.00,19.87,24.52,28.33,15.01,54.73,1030.61,2034.99,1178.97,1358.59,1505.05,599.67,610.38,56.33,0000 0000 0000 0000 000000
2016-12-21 01:45:57,0.15,11.35,0.00,19.89,24.52,28.33,15.07,54.81,1030.47,2034.99,1178.19,1358.01,1504.61,599.78,610.34,56.38,0000 0000 0000 0000 000000
2016-12-21 01:50:59,0.13,11.36,0.00,19.89,24.52,28.36,15.02,54.67,1030.45,2034.97,1177.64,1357.56,1504.01,599.86,610.42,56.43,0000 0000 0000 0000 000000
2016-12-21 01:56:00,0.10,11.36,0.00,19.89,24.52,28.36,15.03,54.72,1030.34,2034.98,1176.99,1357.01,1503.50,600.02,610.50,56.48,0000 0000 0000 0000 000000
2016-12-21 02:01:01,0.17,11.37,0.00,19.92,24.53,28.32,15.02,54.56,1030.49,2034.98,1176.23,1356.47,1502.90,600.31,610.90,56.53,0000 0000 0000 0000 000000
2016-12-21 02:06:02,0.12,11.38,0.00,19.95,24.54,28.33,15.08,54.54,1030.32,2034.97,1175.64,1356.00,1502.09,600.30,610.67,56.58,0000 0000 0000 0000 000000
2016-12-21 02:11:03,0.12,11.38,0.00,19.92,24.54,28.35,15.03,54.40,1030.31,2034.98,1175.01,1355.54,1501.76,600.21,610.76,56.63,0000 0000 0000 0000 000000
2016-12-21 02:16:05,0.14,11.39,0.00,19.90,24.54,28.39,15.02,54.66,1030.33,2034.98,1174.30,1355.01,1501.04,599.96,610.48,56.68,0000 0000 0000 0000 000000
2016-12-21 02:21:06,0.14,11.40,0.00,19.91,24.54,28.36,14.96,54.44,1030.35,2034.97,1173.82,1354.44,1500.53,599.66,609.98,56.73,0000 0000 0000 0000 000000
2016-12-21 02:26:08,0.09,11.41,0.00,19.90,24.54,28.34,15.02,54.32,1030.35,2034.95,1173.05,1354.00,1500.00,600.24,610.73,56.78,0000 0000 0000 0000 000000
2016-12-21 02:31:09,0.20,11.41,0.00,19.91,24.54,28.35,15.05,54.35,1030.33,2034.97,1172.50,1353.49,1499.34,600.30,610.84,56.83,0000 0000 0000 0000 000000
2016-12-21 02:36:10,0.05,11.42,0.00,19.91,24.54,28.34,14.98,54.64,1030.33,2034.97,1171.92,1353.00,1498.89,599.71,610.00,56.88,0000 0000 0000 0000 000000
2016-12-21 02:41:11,0.19,11.43,0.00,19.90,24.55,28.35,15.06,54.61,1030.48,2034.98,1171.10,1352.48,1498.10,600.28,610.76,56.94,0000 0000 0000 0000 000000
2016-12-21 02:46:12,0.09,11.43,0.00,19.89,24.55,28.38,14.99,54.52,1030.68,2034.96,1170.56,1352.00,1497.83,599.83,610.51,56.99,0000 0000 0000 0000 000000
2016-12-21 02:51:13,0.14,11.44,0.00,19.86,24.55,28.38,15.06,54.54,1030.68,2034.97,1169.93,1351.53,1497.05,600.09,610.79,57.04,0000 0000 0000 0000 000000
2016-12-21 02:56:14,0.14,11.45,0.00,19.87,24.54,28.35,15.05,54.21,1030.78,2034.99,1169.12,1351.01,1496.67,599.58,610.43,57.09,0000 0000 0000 0000 000000
2016-12-21 03:01:15,0.11,11.45,0.00,19.85,24.54,28.31,15.03,54.28,1030.78,2034.98,1168.80,1350.59,1496.02,600.13,610.99,57.14,0000 0000 0000 0000 000000
2016-12-21 03:06:17,0.13,11.46,0.00,19.85,24.54,28.33,15.04,54.25,1030.78,2034.98,1168.06,1350.01,1495.59,599.93,610.72,57.19,0000 0000 0000 0000 000000
2016-12-21 03:11:18,0.15,11.46,0.00,19.87,24.54,28.34,15.12,54.39,1030.73,2034.98,1167.44,1349.61,1495.00,600.18,610.94,57.24,0000 0000 0000 0000 000000
2016-12-21 03:16:19,0.09,11.47,0.00,19.90,24.54,28.36,15.01,54.20,1030.78,2034.98,1166.90,1349.02,1494.29,600.43,611.06,57.29,0000 0000 0000 0000 000000
2016-12-21 03:21:21,0.16,11.48,0.00,19.90,24.55,28.32,15.06,54.28,1030.78,2034.96,1166.07,1348.56,1493.90,600.12,610.88,57.34,0000 0000 0000 0000 000000
2016-12-21 03:26:22,0.15,11.49,0.00,19.91,24.55,28.37,15.14,54.23,1030.80,2034.94,1165.47,1348.01,1493.08,600.29,610.94,57.39,0000 0000 0000 0000 000000
2016-12-21 03:31:23,0.10,11.49,0.00,19.94,24.55,28.39,15.06,54.29,1030.88,2034.88,1164.99,1347.46,1492.65,599.95,610.84,57.44,0000 0000 0000 0000 000000
2016-12-21 03:36:25,0.14,11.50,0.00,19.95,24.55,28.35,15.05,54.30,1030.99,2034.88,1164.22,1347.00,1492.02,600.12,610.85,57.49,0000 0000 0000 0000 000000
2016-12-21 03:41:26,0.13,11.50,0.00,19.91,24.55,28.37,15.07,54.41,1031.07,2034.83,1163.78,1346.52,1491.54,600.03,611.00,57.54,0000 0000 0000 0000 000000
2016-12-21 03:46:27,0.12,11.51,0.00,19.92,24.55,28.37,15.05,54.27,1031.15,2034.79,1163.02,1346.01,1490.98,600.01,610.95,57.59,0000 0000 0000 0000 000000
2016-12-21 03:51:29,0.18,11.52,0.00,19.93,24.55,28.42,15.05,54.26,1031.20,2034.72,1162.31,1345.46,1490.19,600.11,610.79,57.64,0000 0000 0000 0000 000000
2016-12-21 03:56:30,0.08,11.53,0.00,19.93,24.55,28.40,15.00,54.23,1030.99,2034.88,1161.77,1345.01,1489.89,599.82,610.59,57.69,0000 0000 0000 0000 000000
2016-12-21 04:01:31,0.16,11.53,0.00,19.95,24.55,28.38,15.02,54.23,1030.88,2034.86,1161.04,1344.51,1489.08,599.96,610.70,57.74,0000 0000 0000 0000 000000
2016-12-21 04:06:33,0.11,11.54,0.00,19.96,24.56,28.37,15.04,54.18,1031.20,2034.77,1160.42,1344.00,1488.73,599.56,610.42,57.79,0000 0000 0000 0000 000000
2016-12-21 04:11:34,0.11,11.55,0.00,19.94,24.56,28.30,15.07,54.21,1031.27,2034.75,1159.94,1343.53,1488.03,600.03,610.96,57.84,0000 0000 0000 0000 000000
2016-12-21 04:16:35,0.12,11.55,0.00,19.98,24.57,28.31,14.96,53.82,1031.31,2034.56,1159.11,1343.01,1487.50,599.86,610.82,57.89,0000 0000 0000 0000 000000
2016-12-21 04:21:37,0.11,11.56,0.00,20.02,24.57,28.32,14.97,53.90,1031.28,2034.55,1158.56,1342.84,1486.99,600.09,610.87,57.95,0000 0000 0000 0000 000000
2016-12-21 04:26:38,0.13,11.57,0.00,20.01,24.57,28.34,15.03,54.10,1031.27,2034.48,1157.96,1342.07,1486.25,599.85,610.74,58.00,0000 0000 0000 0000 000000
2016-12-21 04:31:39,0.10,11.57,0.00,20.04,24.58,28.40,15.00,54.23,1031.26,2034.31,1157.12,1341.79,1485.87,599.64,610.36,58.05,0000 0000 0000 0000 000000
2016-12-21 04:36:41,0.13,11.58,0.00,20.07,24.60,28.38,15.05,54.24,1031.18,2034.14,1156.70,1341.05,1485.08,600.13,610.74,58.10,0000 0000 0000 0000 000000
2016-12-21 04:41:42,0.10,11.58,0.00,20.08,24.60,28.46,15.02,54.10,1031.03,2034.07,1156.00,1340.70,1484.68,600.12,610.63,58.15,0000 0000 0000 0000 000000
2016-12-21 04:46:43,0.15,11.59,0.00,20.09,24.62,28.47,15.00,54.26,1031.14,2034.04,1155.26,1340.04,1484.01,600.21,610.65,58.20,0000 0000 0000 0000 000000
2016-12-21 04:51:45,0.16,11.59,0.00,20.09,24.62,28.44,15.01,54.25,1031.00,2034.02,1154.63,1339.68,1483.36,600.03,610.49,58.25,0000 0000 0000 0000 000000
2016-12-21 04:56:46,0.08,11.60,0.00,20.11,24.63,28.46,15.06,54.27,1031.18,2034.01,1153.97,1339.02,1482.89,600.10,610.54,58.30,0000 0000 0000 0000 000000
2016-12-21 05:01:47,0.20,11.61,0.00,20.10,24.65,28.45,15.05,54.33,1031.26,2034.00,1153.15,1338.52,1482.07,599.87,610.50,58.35,0000 0000 0000 0000 000000
2016-12-21 05:06:49,0.13,11.62,0.00,20.13,24.65,28.48,15.05,54.48,1031.26,2034.00,1152.60,1338.00,1481.62,600.19,610.85,58.40,0000 0000 0000 0000 000000
2016-12-21 05:11:50,0.13,11.63,0.00,20.16,24.66,28.46,15.01,54.48,1031.29,2034.00,1151.97,1337.38,1481.00,599.81,610.32,58.45,0000 0000 0000 0000 000000
2016-12-21 05:16:51,0.14,11.63,0.00,20.17,24.67,28.54,15.06,54.45,1031.34,2034.00,1151.16,1336.99,1480.35,600.09,610.59,58.50,0000 0000 0000 0000 000000
2016-12-21 05:21:53,0.13,11.64,0.00,20.16,24.68,28.54,15.10,54.40,1031.45,2034.00,1150.77,1336.27,1479.90,600.02,610.58,58.55,0000 0000 0000 0000 000000
2016-12-21 05:26:54,0.11,11.65,0.00,20.19,24.70,28.55,15.09,54.37,1031.46,2034.00,1150.04,1335.96,1479.10,600.00,610.53,58.60,0000 0000 0000 0000 000000
2016-12-21 05:31:55,0.20,11.66,0.00,20.18,24.70,28.56,15.05,54.45,1031.59,2034.00,1149.36,1335.24,1478.61,600.25,610.75,58.65,0000 0000 0000 0000 000000
2016-12-21 05:36:57,0.08,11.66,0.00,20.19,24.71,28.58,15.09,54.38,1031.74,2034.00,1148.77,1334.88,1478.00,600.03,610.64,58.70,0000 0000 0000 0000 000000
2016-12-21 05:41:58,0.18,11.67,0.00,20.19,24.72,28.63,15.00,54.22,1031.75,2033.98,1148.03,1334.09,1477.25,599.79,610.61,58.75,0000 0000 0000 0000 000000
2016-12-21 05:46:59,0.12,11.68,0.00,20.18,24.72,28.59,15.04,54.45,1031.75,2033.97,1147.38,1333.83,1476.86,599.88,610.65,58.81,0000 0000 0000 0000 000000
2016-12-21 05:52:00,0.15,11.69,0.00,20.17,24.73,28.63,14.98,54.55,1031.75,2033.96,1146.80,1333.06,1476.08,600.03,610.78,58.86,0000 0000 0000 0000 000000
2016-12-21 05:57:02,0.11,11.69,0.00,20.17,24.75,28.62,15.04,54.57,1031.76,2033.87,1146.04,1332.75,1475.60,600.19,610.87,58.91,0000 0000 0000 0000 000000
2016-12-21 06:02:03,0.16,11.70,0.00,20.19,24.75,28.58,14.98,54.42,1031.77,2033.85,1145.41,1332.04,1475.00,599.89,610.67,58.96,0000 0000 0000 0000 000000
2016-12-21 06:07:05,0.10,11.70,0.00,20.15,24.75,28.60,15.00,54.39,1031.79,2033.83,1144.88,1331.71,1474.36,600.11,610.97,59.01,0000 0000 0000 0000 000000
2016-12-21 06:12:06,0.12,11.71,0.00,20.17,24.75,28.61,15.04,54.50,1031.89,2033.69,1144.07,1331.03,1473.93,599.80,610.69,59.06,0000 0000 0000 0000 000000
2016-12-21 06:17:07,0.18,11.72,0.00,20.17,24.75,28.60,15.06,54.46,1032.13,2033.56,1143.45,1330.64,1473.11,600.13,611.08,59.11,0000 0000 0000 0000 000000
2016-12-21 06:22:08,0.12,11.73,0.00,20.17,24.76,28.58,15.02,54.19,1032.22,2033.73,1142.88,1330.02,1472.74,600.05,611.00,59.16,0000 0000 0000 0000 000000
2016-12-21 06:27:09,0.15,11.73,0.00,20.21,24.77,28.59,15.02,54.38,1032.24,2033.59,1142.08,1329.61,1472.03,599.69,610.66,59.21,0000 0000 0000 0000 000000
2016-12-21 06:32:10,0.13,11.74,0.00,20.18,24.77,28.56,15.02,54.23,1032.24,2033.53,1141.56,1329.01,1471.64,600.04,611.04,59.26,0000 0000 0000 0000 000000
2016-12-21 06:37:12,0.08,11.75,0.00,20.17,24.77,28.62,15.09,54.30,1032.24,2033.45,1140.95,1328.58,1471.01,600.04,611.06,59.31,0000 0000 0000 0000 000000
2016-12-21 06:42:13,0.16,11.75,0.00,20.17,24.77,28.58,15.09,54.23,1032.25,2033.41,1140.12,1328.02,1470.58,600.34,611.34,59.36,0000 0000 0000 0000 000000
2016-12-21 06:47:14,0.12,11.76,0.00,20.15,24.77,28.58,14.97,54.30,1032.25,2033.45,1139.73,1327.62,1470.01,599.80,610.99,59.41,0000 0000 0000 0000 000000
2016-12-21 06:52:15,0.08,11.77,0.00,20.13,24.77,28.52,15.07,54.33,1032.26,2033.20,1139.02,1327.02,1469.30,600.06,611.17,59.46,0000 0000 0000 0000 000000
2016-12-21 06:57:17,0.18,11.77,0.00,20.15,24.77,28.54,15.03,54.28,1032.25,2033.25,1138.29,1326.63,1468.94,599.74,610.83,59.51,0000 0000 0000 0000 000000
2016-12-21 07:02:18,0.09,11.78,0.00,20.16,24.77,28.53,15.04,54.13,1032.27,2033.17,1137.83,1326.01,1468.13,599.97,610.95,59.56,0000 0000 0000 0000 000000
2016-12-21 07:07:19,0.14,11.78,0.00,20.13,24.77,28.56,15.06,54.13,1032.25,2033.17,1137.05,1325.61,1467.86,600.14,611.33,59.61,0000 0000 0000 0000 000000
2016-12-21 07:12:21,0.14,11.79,0.00,20.17,24.77,28.56,15.05,54.34,1032.24,2033.09,1136.48,1325.01,1467.07,600.10,611.14,59.66,0000 0000 0000 0000 000000
2016-12-21 07:17:22,0.12,11.80,0.00,20.16,24.77,28.53,15.03,54.21,1032.24,2033.08,1135.92,1324.58,1466.58,600.25,611.24,59.72,0000 0000 0000 0000 000000
2016-12-21 07:22:23,0.13,11.81,0.00,20.14,24.77,28.55,15.08,54.19,1032.23,2033.06,1135.11,1324.02,1466.00,600.24,611.37,59.77,0000 0000 0000 0000 000000
2016-12-21 07:27:24,0.20,11.81,0.00,20.18,24.77,28.50,15.05,54.43,1032.10,2033.08,1134.47,1323.56,1465.41,600.08,611.00,59.82,0000 0000 0000 0000 000000
2016-12-21 07:32:25,0.06,11.82,0.00,20.16,24.77,28.51,15.09,54.53,1032.19,2033.07,1133.89,1323.00,1464.95,600.12,611.22,59.87,0000 0000 0000 0000 000000
2016-12-21 07:37:27,0.21,11.83,0.00,20.16,24.77,28.52,15.09,54.75,1032.24,2033.10,1133.07,1322.49,1464.13,600.15,611.21,59.92,0000 0000 0000 0000 000000
2016-12-21 07:42:28,0.10,11.83,0.00,20.19,24.77,28.50,15.08,54.36,1032.24,2033.10,1132.55,1322.00,1463.90,600.42,611.33,59.97,0000 0000 0000 0000 000000
2016-12-21 07:47:29,0.12,11.84,0.00,20.22,24.77,28.58,14.99,54.34,1032.28,2033.12,1131.99,1321.57,1463.12,599.75,610.80,60.02,0000 0000 0000 0000 000000
2016-12-21 07:52:31,0.14,11.85,0.00,20.18,24.77,28.61,14.96,54.30,1032.53,2033.08,1131.35,1321.01,1462.73,599.81,611.00,60.07,0000 0000 0000 0000 000000
2016-12-21 07:57:32,0.14,11.85,0.00,20.16,24.77,28.54,15.00,54.26,1032.45,2033.04,1130.77,1320.56,1462.02,599.86,610.93,60.12,0000 0000 0000 0000 000000
2016-12-21 08:02:33,0.29,2.37,0.00,20.17,24.81,28.63,13.52,43.89,1032.45,2038.10,3197.61,2846.32,3226.69,533.72,540.45,0.00,0000 0000 0000 0000 000000
2016-12-21 08:07:34,0.29,0.00,0.00,20.17,24.80,28.68,14.95,49.61,1032.29,2039.07,3603.72,3147.36,3576.09,599.72,610.78,0.05,0000 0000 0000 0000 000000
2016-12-21 08:12:36,0.27,0.01,0.00,20.19,24.79,28.60,15.02,49.27,1032.25,2039.02,3599.81,3144.89,3573.23,600.32,611.24,0.10,0000 0000 0000 0000 000000
2016-12-21 08:17:37,0.25,0.01,0.00,20.23,24.77,28.60,14.96,49.13,1032.24,2039.04,3596.34,3142.61,3570.56,599.99,610.89,0.15,0000 0000 0000 0000 000000
2016-12-21 08:22:38,0.21,0.02,0.00,20.20,24.77,28.52,15.01,49.23,1032.24,2039.04,3592.98,3140.33,3567.97,600.28,611.30,0.20,0000 0000 0000 0000 000000
2016-12-21 08:27:40,0.17,0.03,0.00,20.18,24.77,28.44,14.96,49.17,1032.20,2039.03,3589.59,3138.03,3565.21,599.88,610.85,0.25,0000 0000 0000 0000 000000
2016-12-21 08:32:41,0.14,0.04,0.00,20.19,24.77,28.47,14.97,49.12,1032.23,2039.02,3586.38,3135.80,3562.59,600.01,611.08,0.30,0000 0000 0000 0000 000000
2016-12-21 08:37:42,0.12,0.04,0.00,20.19,24.77,28.52,14.93,49.13,1032.24,2039.02,3583.35,3133.79,3560.14,599.75,610.68,0.35,0000 0000 0000 0000 000000
2016-12-21 08:42:44,0.14,0.05,0.00,20.17,24.77,28.46,14.98,49.18,1032.25,2039.02,3580.33,3131.62,3557.53,599.93,610.97,0.40,0000 0000 0000 0000 000000
2016-12-21 08:47:45,0.14,0.06,0.00,20.18,24.77,28.49,14.96,49.18,1032.25,2039.01,3577.08,3129.35,3554.90,599.83,610.85,0.45,0000 0000 0000 0000 000000
2016-12-21 08:52:46,0.14,0.07,0.00,20.17,24.77,28.47,14.99,48.98,1032.29,2039.02,3573.86,3127.12,3552.36,600.21,611.27,0.50,0000 0000 0000 0000 000000
2016-12-21 08:57:47,0.14,0.07,0.00,20.14,24.77,28.46,14.95,49.09,1032.47,2039.01,3570.64,3124.85,3549.71,599.96,611.20,0.55,0000 0000 0000 0000 000000
2016-12-21 09:02:49,0.14,0.08,0.00,20.13,24.77,28.43,14.93,49.26,1032.74,2039.01,3567.43,3122.56,3547.10,600.03,611.51,0.60,0000 0000 0000 0000 000000
2016-12-21 09:07:50,0.14,0.09,0.00,20.10,24.77,28.49,14.96,49.12,1032.81,2039.02,3564.13,3120.33,3544.47,599.80,611.32,0.65,0000 0000 0000 0000 000000
2016-12-21 09:12:52,0.14,0.10,0.00,20.05,24.77,28.44,14.98,48.97,1032.96,2039.02,3560.95,3118.13,3541.94,600.00,611.61,0.70,0000 0000 0000 0000 000000
2016-12-21 09:17:53,0.14,0.10,0.00,20.07,24.75,28.44,14.97,48.92,1033.10,2039.01,3557.76,3115.94,3539.42,600.19,612.01,0.75,0000 0000 0000 0000 000000
2016-12-21 09:22:54,0.13,0.11,0.00,20.06,24.75,28.50,14.94,49.04,1033.11,2039.01,3554.73,3113.80,3536.99,599.55,611.24,0.80,0000 0000 0000 0000 000000
2016-12-21 09:27:56,0.14,0.12,0.00,20.06,24.75,28.47,15.05,48.98,1033.19,2039.02,3551.62,3111.65,3534.43,600.09,611.88,0.85,0000 0000 0000 0000 000000
2016-12-21 09:32:57,0.14,0.12,0.00,20.06,24.74,28.46,14.99,48.88,1033.22,2039.02,3548.48,3109.46,3531.95,599.99,611.87,0.90,0000 0000 0000 0000 000000
2016-12-21 09:37:58,0.14,0.13,0.00,20.08,24.73,28.43,14.98,48.90,1033.22,2039.06,3545.38,3107.28,3529.42,599.98,611.72,0.95,0000 0000 0000 0000 000000
2016-12-21 09:42:59,0.14,0.14,0.00,20.07,24.72,28.47,14.93,48.84,1033.23,2039.07,3542.33,3105.16,3526.97,600.04,611.91,1.00,0000 0000 0000 0000 000000
2016-12-21 09:48:00,0.13,0.14,0.00,20.08,24.72,28.42,14.98,48.92,1033.23,2039.05,3539.27,3103.04,3524.56,599.85,611.62,1.06,0000 0000 0000 0000 000000
2016-12-21 09:53:02,0.14,0.15,0.00,20.05,24.72,28.38,14.94,48.80,1033.22,2039.08,3536.19,3100.86,3522.04,599.90,611.72,1.11,0000 0000 0000 0000 000000
2016-12-21 09:58:04,0.14,0.16,0.00,20.04,24.72,28.35,15.01,49.08,1033.22,2039.15,3533.17,3098.76,3519.69,600.57,612.47,1.16,0000 0000 0000 0000 000000
2016-12-21 10:03:05,0.14,0.17,0.00,20.03,24.72,28.36,14.94,49.10,1033.22,2039.25,3530.12,3096.59,3517.34,599.86,611.75,1.21,0000 0000 0000 0000 000000
2016-12-21 10:08:06,0.13,0.17,0.00,20.05,24.72,28.40,15.00,49.00,1033.27,2039.19,3526.99,3094.37,3514.81,600.31,612.18,1.26,0000 0000 0000 0000 000000
2016-12-21 10:13:07,0.14,0.18,0.00,20.06,24.72,28.41,14.97,48.99,1033.63,2039.24,3523.98,3092.22,3512.29,600.05,612.21,1.31,0000 0000 0000 0000 000000
2016-12-21 10:18:09,0.12,0.19,0.00,20.05,24.72,28.40,14.98,48.92,1033.71,2039.19,3520.93,3090.08,3509.75,600.33,612.39,1.36,0000 0000 0000 0000 000000
2016-12-21 10:23:10,0.13,0.19,0.00,20.06,24.72,28.39,14.96,48.97,1033.71,2039.20,3518.09,3087.89,3507.18,599.94,612.03,1.41,0000 0000 0000 0000 000000
2016-12-21 10:28:11,0.13,0.20,0.00,20.06,24.72,28.48,14.99,49.09,1033.71,2039.10,3515.01,3085.67,3504.61,599.86,611.99,1.46,0000 0000 0000 0000 000000
2016-12-21 10:33:13,0.14,0.21,0.00,20.06,24.71,28.52,14.95,49.00,1033.72,2039.07,3511.86,3083.42,3502.01,599.82,611.96,1.51,0000 0000 0000 0000 000000
2016-12-21 10:38:14,0.14,0.22,0.00,20.04,24.70,28.44,15.02,48.83,1033.73,2039.06,3508.74,3081.20,3499.40,600.35,612.53,1.56,0000 0000 0000 0000 000000
2016-12-21 10:43:15,0.14,0.22,0.00,20.02,24.70,28.38,15.00,48.86,1033.71,2039.04,3505.63,3079.00,3496.86,599.95,612.17,1.61,0000 0000 0000 0000 000000
2016-12-21 10:48:16,0.14,0.23,0.00,20.03,24.70,28.35,15.00,48.92,1033.71,2039.05,3502.55,3076.88,3494.35,599.95,612.16,1.66,0000 0000 0000 0000 000000
2016-12-21 10:53:18,0.13,0.24,0.00,20.04,24.70,28.43,14.87,48.79,1033.72,2039.02,3499.48,3074.67,3491.86,599.69,611.88,1.71,0000 0000 0000 0000 000000
2016-12-21 10:58:19,0.13,0.24,0.00,20.06,24.69,28.43,14.99,48.83,1033.73,2039.05,3496.40,3072.54,3489.38,599.84,612.01,1.76,0000 0000 0000 0000 000000
2016-12-21 11:03:21,0.14,0.25,0.00,20.06,24.69,28.40,14.97,48.94,1033.73,2039.06,3493.35,3070.46,3486.90,599.76,611.91,1.81,0000 0000 0000 0000 000000
2016-12-21 11:08:22,0.14,0.26,0.00,20.05,24.67,28.41,14.98,48.86,1033.86,2039.06,3490.30,3068.27,3484.36,600.12,612.33,1.86,0000 0000 0000 0000 000000
2016-12-21 11:13:24,0.14,0.26,0.00,20.05,24.67,28.42,14.97,48.97,1033.73,2039.06,3487.12,3066.12,3481.98,599.93,612.21,1.91,0000 0000 0000 0000 000000
2016-12-21 11:18:25,0.14,0.27,0.00,20.07,24.67,28.42,15.04,49.05,1033.69,2039.09,3483.88,3063.92,3479.44,600.42,612.52,1.96,0000 0000 0000 0000 000000
2016-12-21 11:23:26,0.15,0.28,0.00,20.04,24.67,28.43,14.98,49.02,1033.72,2039.18,3480.96,3061.79,3477.00,600.28,612.37,2.01,0000 0000 0000 0000 000000
2016-12-21 11:28:28,0.13,0.29,0.00,20.07,24.67,28.43,14.99,49.03,1033.71,2039.11,3477.86,3059.57,3474.44,599.92,611.92,2.06,0000 0000 0000 0000 000000
2016-12-21 11:33:29,0.15,0.29,0.00,20.08,24.67,28.39,15.08,49.18,1033.73,2039.16,3474.77,3057.33,3471.90,599.87,612.05,2.11,0000 0000 0000 0000 000000
2016-12-21 11:38:30,0.14,0.30,0.00,20.08,24.66,28.36,15.02,49.14,1033.78,2039.13,3471.64,3055.22,3469.37,600.38,612.47,2.16,0000 0000 0000 0000 000000
2016-12-21 11:43:31,0.14,0.31,0.00,20.07,24.65,28.33,14.97,49.16,1033.74,2039.13,3468.57,3052.98,3466.85,599.91,612.00,2.21,0000 0000 0000 0000 000000
2016-12-21 11:48:32,0.14,0.32,0.00,20.06,24.65,28.37,14.95,49.13,1033.71,2039.12,3465.48,3050.81,3464.30,599.47,611.73,2.26,0000 0000 0000 0000 000000
2016-12-21 11:53:34,0.14,0.32,0.00,20.03,24.65,28.44,14.99,49.13,1033.71,2039.16,3462.44,3048.61,3461.85,599.92,612.14,2.31,0000 0000 0000 0000 000000
2016-12-21 11:58:35,0.14,0.33,0.00,20.04,24.65,28.40,14.97,49.12,1033.73,2039.16,3459.36,3046.40,3459.29,599.98,612.18,2.36,0000 0000 0000 0000 000000
2016-12-21 12:03:36,0.14,0.34,0.00,20.06,24.65,28.34,14.98,48.93,1034.07,2039.24,3456.34,3044.26,3456.89,600.27,612.59,2.41,0000 0000 0000 0000 000000
2016-12-21 12:08:37,0.14,0.34,0.00,20.03,24.65,28.34,14.93,48.88,1034.15,2039.25,3453.37,3042.13,3454.47,599.98,612.50,2.46,0000 0000 0000 0000 000000
2016-12-21 12:13:38,0.13,0.35,0.00,20.03,24.65,28.44,15.01,48.87,1034.19,2039.21,3450.43,3040.03,3452.05,599.93,612.45,2.51,0000 0000 0000 0000 000000
2016-12-21 12:18:39,0.13,0.36,0.00,20.05,24.65,28.38,15.01,49.03,1034.19,2039.09,3447.33,3037.71,3449.48,599.97,612.41,2.56,0000 0000 0000 0000 000000
2016-12-21 12:23:41,0.14,0.37,0.00,20.03,24.64,28.35,15.01,48.84,1034.11,2039.12,3444.36,3035.64,3446.97,600.22,612.71,2.61,0000 0000 0000 0000 000000
2016-12-21 12:28:42,0.13,0.37,0.00,20.01,24.64,28.38,15.02,49.23,1033.72,2039.11,3441.30,3033.50,3444.54,600.35,612.59,2.66,0000 0000 0000 0000 000000
2016-12-21 12:33:43,0.13,0.38,0.00,20.00,24.64,28.31,14.97,49.17,1033.71,2039.11,3438.30,3031.32,3442.09,599.85,612.16,2.71,0000 0000 0000 0000 000000
2016-12-21 12:38:44,0.14,0.39,0.00,20.03,24.63,28.36,14.96,49.17,1033.68,2039.11,3435.27,3029.18,3439.65,600.14,612.36,2.76,0000 0000 0000 0000 000000
2016-12-21 12:43:46,0.14,0.40,0.00,20.04,24.63,28.41,14.94,48.99,1033.71,2039.12,3432.29,3027.06,3437.19,599.59,611.72,2.81,0000 0000 0000 0000 000000
2016-12-21 12:48:47,0.14,0.40,0.00,20.03,24.63,28.31,14.98,49.08,1033.90,2039.08,3429.22,3024.82,3434.56,599.98,612.23,2.86,0000 0000 0000 0000 000000
2016-12-21 12:53:48,0.14,0.41,0.00,20.01,24.63,28.36,15.06,49.15,1034.17,2039.05,3426.13,3022.62,3432.03,600.20,612.85,2.91,0000 0000 0000 0000 000000